| time (UTC) | temp F | wind direction | speed MPH | gust MPH | rain 1hr in | rain 24hr in | rain mn in | humidity % | barometer mb |
| 20260505183037 | 84 | 259 | 11.0 | 19.0 | 0.00 | 0.00 | 0.00 | 60 | 1004.3 |
| 20260505182521 | 84 | 205 | 13.0 | 18.0 | 0.00 | 0.00 | 0.00 | 60 | 1004.3 |
| 20260505182027 | 84 | 228 | 12.0 | 21.0 | 0.00 | 0.00 | 0.00 | 61 | 1004.3 |
| 20260505181536 | 84 | 254 | 12.0 | 21.0 | 0.00 | 0.00 | 0.00 | 61 | 1004.2 |
| 20260505181041 | 84 | 218 | 10.0 | 20.0 | 0.00 | 0.00 | 0.00 | 61 | 1004.2 |
| 20260505180533 | 84 | 228 | 12.0 | 20.0 | 0.00 | 0.00 | 0.00 | 62 | 1004.4 |
| 20260505180037 | 84 | 232 | 6.0 | 14.0 | 0.00 | 0.00 | 0.00 | 62 | 1004.4 |
| 20260505175525 | 84 | 227 | 4.0 | 15.0 | 0.00 | 0.00 | 0.00 | 62 | 1004.4 |
| 20260505175034 | 84 | 205 | 9.0 | 15.0 | 0.00 | 0.00 | 0.00 | 62 | 1004.4 |
| 20260505174526 | 84 | 231 | 8.0 | 17.0 | 0.00 | 0.00 | 0.00 | 62 | 1004.2 |
| 20260505174032 | 84 | 224 | 8.0 | 20.0 | 0.00 | 0.00 | 0.00 | 62 | 1004.3 |
| 20260505173537 | 83 | 205 | 10.0 | 18.0 | 0.00 | 0.00 | 0.00 | 63 | 1004.3 |
| 20260505173039 | 83 | 224 | 10.0 | 17.0 | 0.00 | 0.00 | 0.00 | 64 | 1004.2 |
| 20260505172545 | 83 | 211 | 11.0 | 17.0 | 0.00 | 0.00 | 0.00 | 64 | 1004.3 |
| 20260505172033 | 83 | 218 | 4.0 | 16.0 | 0.00 | 0.00 | 0.00 | 64 | 1004.3 |
| 20260505171541 | 83 | 224 | 9.0 | 17.0 | 0.00 | 0.00 | 0.00 | 64 | 1004.4 |
| 20260505171044 | 82 | 247 | 11.0 | 17.0 | 0.00 | 0.00 | 0.00 | 64 | 1004.4 |
| 20260505170525 | 82 | 245 | 4.0 | 16.0 | 0.00 | 0.00 | 0.00 | 65 | 1004.3 |
| 20260505170030 | 82 | 179 | 6.0 | 17.0 | 0.00 | 0.00 | 0.00 | 65 | 1004.4 |
| 20260505165531 | 82 | 239 | 10.0 | 17.0 | 0.00 | 0.00 | 0.00 | 65 | 1004.5 |
| 20260505165040 | 81 | 222 | 6.0 | 15.0 | 0.00 | 0.00 | 0.00 | 67 | 1004.5 |
| 20260505164525 | 80 | 217 | 5.0 | 15.0 | 0.00 | 0.00 | 0.00 | 68 | 1004.4 |
| 20260505164027 | 80 | 153 | 7.0 | 15.0 | 0.00 | 0.00 | 0.00 | 68 | 1004.4 |
| 20260505163537 | 80 | 202 | 4.0 | 20.0 | 0.00 | 0.00 | 0.00 | 69 | 1004.5 |
| 20260505163023 | 80 | 238 | 5.0 | 20.0 | 0.00 | 0.00 | 0.00 | 68 | 1004.4 |
| 20260505162532 | 80 | 220 | 7.0 | 18.0 | 0.00 | 0.00 | 0.00 | 68 | 1004.3 |
| 20260505162037 | 79 | 251 | 10.0 | 19.0 | 0.00 | 0.00 | 0.00 | 67 | 1004.4 |
| 20260505161543 | 79 | 205 | 9.0 | 19.0 | 0.00 | 0.00 | 0.00 | 69 | 1004.3 |
| 20260505161026 | 79 | 173 | 13.0 | 18.0 | 0.00 | 0.00 | 0.00 | 69 | 1004.3 |
| 20260505160530 | 79 | 202 | 10.0 | 18.0 | 0.00 | 0.00 | 0.00 | 70 | 1004.2 |
| 20260505153049 | 77 | 222 | 8.0 | 19.0 | 0.00 | 0.00 | 0.00 | 73 | 1004.2 |
| 20260505152555 | 76 | 228 | 3.0 | 19.0 | 0.00 | 0.00 | 0.00 | 73 | 1004.1 |
| 20260505152041 | 76 | 212 | 13.0 | 19.0 | 0.00 | 0.00 | 0.00 | 73 | 1004.1 |
| 20260505151530 | 76 | 216 | 12.0 | 18.0 | 0.00 | 0.00 | 0.00 | 73 | 1004.1 |
| 20260505151033 | 76 | 197 | 7.0 | 14.0 | 0.00 | 0.00 | 0.00 | 73 | 1004.1 |
| 20260505150545 | 76 | 206 | 2.0 | 15.0 | 0.00 | 0.00 | 0.00 | 74 | 1004.1 |
| 20260505140520 | 74 | 225 | 4.0 | 14.0 | 0.00 | 0.00 | 0.00 | 78 | 1003.8 |
| 20260505125025 | 71 | 227 | 9.0 | 16.0 | 0.00 | 0.00 | 0.00 | 81 | 1003.8 |
| 20260505124535 | 71 | 214 | 11.0 | 16.0 | 0.00 | 0.00 | 0.00 | 81 | 1003.8 |
| 20260505124025 | 71 | 208 | 4.0 | 15.0 | 0.00 | 0.00 | 0.00 | 82 | 1003.6 |
| 20260505123601 | 71 | 198 | 7.0 | 16.0 | 0.00 | 0.00 | 0.00 | 82 | 1003.6 |
| 20260505123047 | 71 | 200 | 8.0 | 16.0 | 0.00 | 0.00 | 0.00 | 82 | 1003.5 |
| 20260505122553 | 71 | 216 | 0.0 | 16.0 | 0.00 | 0.00 | 0.00 | 82 | 1003.5 |
| 20260505122031 | 71 | 216 | 10.0 | 16.0 | 0.00 | 0.00 | 0.00 | 82 | 1003.3 |
| 20260505121534 | 70 | 202 | 4.0 | 14.0 | 0.00 | 0.00 | 0.00 | 82 | 1003.3 |
| 20260505121038 | 70 | 227 | 6.0 | 14.0 | 0.00 | 0.00 | 0.00 | 82 | 1003.3 |
| 20260505120543 | 70 | 210 | 0.0 | 14.0 | 0.00 | 0.00 | 0.00 | 82 | 1003.2 |
| 20260505120025 | 70 | 212 | 7.0 | 18.0 | 0.00 | 0.00 | 0.00 | 82 | 1003.1 |
| 20260505115601 | 70 | 214 | 8.0 | 18.0 | 0.00 | 0.00 | 0.00 | 82 | 1003.2 |
| 20260505115032 | 70 | 173 | 12.0 | 18.0 | 0.00 | 0.00 | 0.00 | 82 | 1003.2 |
| 20260505114532 | 70 | 216 | 6.0 | 17.0 | 0.00 | 0.00 | 0.00 | 82 | 1003.1 |
| 20260505114040 | 70 | 231 | 12.0 | 18.0 | 0.00 | 0.00 | 0.00 | 82 | 1003.1 |
| 20260505113527 | 70 | 220 | 8.0 | 18.0 | 0.00 | 0.00 | 0.00 | 82 | 1003.0 |
| 20260505113031 | 70 | 221 | 7.0 | 16.0 | 0.00 | 0.00 | 0.00 | 82 | 1002.9 |
| 20260505112523 | 70 | 207 | 9.0 | 17.0 | 0.00 | 0.00 | 0.00 | 82 | 1002.9 |
| 20260505112031 | 70 | 198 | 6.0 | 17.0 | 0.00 | 0.00 | 0.00 | 82 | 1002.9 |
| 20260505111540 | 70 | 224 | 1.0 | 14.0 | 0.00 | 0.00 | 0.00 | 82 | 1002.9 |
| 20260505111028 | 70 | 203 | 6.0 | 18.0 | 0.00 | 0.00 | 0.00 | 82 | 1002.8 |
| 20260505110534 | 70 | 200 | 8.0 | 18.0 | 0.00 | 0.00 | 0.00 | 82 | 1002.8 |
| 20260505102101 | 71 | 204 | 4.0 | 21.0 | 0.00 | 0.00 | 0.00 | 81 | 1002.7 |
| 20260505101528 | 71 | 220 | 12.0 | 21.0 | 0.00 | 0.00 | 0.00 | 81 | 1002.9 |
| 20260505101035 | 71 | 205 | 6.0 | 20.0 | 0.00 | 0.00 | 0.00 | 81 | 1002.8 |
| 20260505100524 | 71 | 214 | 11.0 | 20.0 | 0.00 | 0.00 | 0.00 | 81 | 1002.8 |
| 20260505100030 | 71 | 200 | 12.0 | 20.0 | 0.00 | 0.00 | 0.00 | 81 | 1002.8 |
| 20260505095550 | 71 | 189 | 7.0 | 18.0 | 0.00 | 0.00 | 0.00 | 81 | 1002.8 |
| 20260505095032 | 71 | 203 | 4.0 | 23.0 | 0.00 | 0.00 | 0.00 | 80 | 1003.0 |
| 20260505094539 | 71 | 190 | 7.0 | 19.0 | 0.00 | 0.00 | 0.00 | 80 | 1002.9 |
| 20260505094026 | 71 | 212 | 11.0 | 18.0 | 0.00 | 0.00 | 0.00 | 80 | 1002.7 |
| 20260505093531 | 71 | 211 | 10.0 | 18.0 | 0.00 | 0.00 | 0.00 | 80 | 1002.8 |
| 20260505093035 | 71 | 206 | 6.0 | 23.0 | 0.00 | 0.00 | 0.00 | 80 | 1002.9 |
| 20260505092542 | 71 | 232 | 9.0 | 23.0 | 0.00 | 0.00 | 0.00 | 80 | 1003.0 |
| 20260505092028 | 71 | 195 | 8.0 | 17.0 | 0.00 | 0.00 | 0.00 | 79 | 1003.0 |
| 20260505091551 | 72 | 205 | 6.0 | 19.0 | 0.00 | 0.00 | 0.00 | 79 | 1003.0 |
| 20260505091040 | 72 | 202 | 10.0 | 21.0 | 0.00 | 0.00 | 0.00 | 79 | 1003.1 |
| 20260505090549 | 72 | 202 | 6.0 | 21.0 | 0.00 | 0.00 | 0.00 | 78 | 1003.2 |
| 20260505090054 | 72 | 206 | 9.0 | 22.0 | 0.00 | 0.00 | 0.00 | 78 | 1003.3 |
| 20260505085541 | 72 | 188 | 12.0 | 22.0 | 0.00 | 0.00 | 0.00 | 78 | 1003.4 |
| 20260505085039 | 72 | 193 | 9.0 | 20.0 | 0.00 | 0.00 | 0.00 | 78 | 1003.4 |
| 20260505084525 | 72 | 204 | 10.0 | 21.0 | 0.00 | 0.00 | 0.00 | 77 | 1003.4 |
| 20260505084100 | 72 | 221 | 12.0 | 21.0 | 0.00 | 0.00 | 0.00 | 77 | 1003.4 |
| 20260505083529 | 72 | 200 | 8.0 | 16.0 | 0.00 | 0.00 | 0.00 | 77 | 1003.5 |
| 20260505083034 | 72 | 204 | 8.0 | 16.0 | 0.00 | 0.00 | 0.00 | 77 | 1003.5 |
| 20260505082602 | 73 | 210 | 11.0 | 18.0 | 0.00 | 0.00 | 0.00 | 76 | 1003.6 |
| 20260505082027 | 73 | 217 | 5.0 | 18.0 | 0.00 | 0.00 | 0.00 | 76 | 1003.5 |
| 20260505081547 | 73 | 184 | 5.0 | 18.0 | 0.00 | 0.00 | 0.00 | 75 | 1003.3 |
| 20260505081032 | 73 | 216 | 9.0 | 20.0 | 0.00 | 0.00 | 0.00 | 75 | 1003.3 |
| 20260505080543 | 73 | 202 | 11.0 | 20.0 | 0.00 | 0.00 | 0.00 | 74 | 1003.4 |
| 20260505080048 | 73 | 208 | 9.0 | 19.0 | 0.00 | 0.00 | 0.00 | 74 | 1003.4 |
| 20260505075531 | 73 | 196 | 7.0 | 19.0 | 0.00 | 0.00 | 0.00 | 74 | 1003.3 |
| 20260505075053 | 73 | 183 | 11.0 | 18.0 | 0.00 | 0.00 | 0.00 | 73 | 1003.4 |
| 20260505074522 | 73 | 214 | 0.0 | 19.0 | 0.00 | 0.00 | 0.00 | 73 | 1003.5 |
| 20260505074100 | 74 | 204 | 10.0 | 19.0 | 0.00 | 0.00 | 0.00 | 73 | 1003.5 |
| 20260505073526 | 74 | 229 | 10.0 | 23.0 | 0.00 | 0.00 | 0.00 | 72 | 1003.6 |
| 20260505073028 | 74 | 206 | 8.0 | 23.0 | 0.00 | 0.00 | 0.00 | 72 | 1003.8 |
| 20260505072557 | 74 | 190 | 10.0 | 20.0 | 0.00 | 0.00 | 0.00 | 72 | 1003.8 |
| 20260505072023 | 74 | 166 | 9.0 | 20.0 | 0.00 | 0.00 | 0.00 | 71 | 1004.0 |
| 20260505071542 | 74 | 182 | 14.0 | 21.0 | 0.00 | 0.00 | 0.00 | 71 | 1004.0 |
| 20260505071030 | 74 | 202 | 11.0 | 21.0 | 0.00 | 0.00 | 0.00 | 71 | 1004.1 |
| 20260505070537 | 74 | 218 | 5.0 | 19.0 | 0.00 | 0.00 | 0.00 | 71 | 1004.2 |
| 20260505070042 | 74 | 195 | 10.0 | 19.0 | 0.00 | 0.00 | 0.00 | 70 | 1004.2 |
| 20260505065527 | 74 | 216 | 11.0 | 19.0 | 0.00 | 0.00 | 0.00 | 70 | 1004.3 |
| 20260505065020 | 74 | 232 | 11.0 | 20.0 | 0.00 | 0.00 | 0.00 | 70 | 1004.4 |
| 20260505064546 | 74 | 197 | 13.0 | 21.0 | 0.00 | 0.00 | 0.00 | 70 | 1004.4 |
| 20260505064050 | 74 | 208 | 11.0 | 21.0 | 0.00 | 0.00 | 0.00 | 69 | 1004.5 |
| 20260505063541 | 75 | 219 | 2.0 | 18.0 | 0.00 | 0.00 | 0.00 | 69 | 1004.5 |
| 20260505063028 | 75 | 199 | 9.0 | 19.0 | 0.00 | 0.00 | 0.00 | 69 | 1004.5 |
| 20260505062531 | 75 | 189 | 13.0 | 21.0 | 0.00 | 0.00 | 0.00 | 69 | 1004.6 |
| 20260505062022 | 75 | 212 | 9.0 | 21.0 | 0.00 | 0.00 | 0.00 | 68 | 1004.6 |
| 20260505061528 | 75 | 204 | 11.0 | 20.0 | 0.00 | 0.00 | 0.00 | 68 | 1004.5 |
| 20260505061055 | 75 | 181 | 10.0 | 20.0 | 0.00 | 0.00 | 0.00 | 68 | 1004.6 |
| 20260505060537 | 75 | 187 | 14.0 | 19.0 | 0.00 | 0.00 | 0.00 | 68 | 1004.5 |
| 20260505060043 | 75 | 199 | 7.0 | 16.0 | 0.00 | 0.00 | 0.00 | 67 | 1004.7 |
| 20260505055542 | 75 | 214 | 6.0 | 18.0 | 0.00 | 0.00 | 0.00 | 67 | 1004.7 |
| 20260505055026 | 76 | 168 | 10.0 | 20.0 | 0.00 | 0.00 | 0.00 | 67 | 1004.7 |
| 20260505054536 | 76 | 201 | 10.0 | 21.0 | 0.00 | 0.00 | 0.00 | 66 | 1004.7 |
| 20260505054023 | 76 | 164 | 9.0 | 21.0 | 0.00 | 0.00 | 0.00 | 66 | 1004.6 |
| 20260505053527 | 76 | 196 | 7.0 | 20.0 | 0.00 | 0.00 | 0.00 | 66 | 1004.6 |
| 20260505053032 | 76 | 195 | 11.0 | 17.0 | 0.00 | 0.00 | 0.00 | 66 | 1004.6 |
| 20260505052536 | 76 | 191 | 10.0 | 17.0 | 0.00 | 0.00 | 0.00 | 66 | 1004.6 |
| 20260505052026 | 76 | 205 | 8.0 | 17.0 | 0.00 | 0.00 | 0.00 | 66 | 1004.6 |
| 20260505051539 | 76 | 158 | 4.0 | 15.0 | 0.00 | 0.00 | 0.00 | 66 | 1004.7 |
| 20260505051029 | 76 | 179 | 9.0 | 18.0 | 0.00 | 0.00 | 0.00 | 66 | 1004.6 |
| 20260505050539 | 76 | 171 | 11.0 | 18.0 | 0.00 | 0.00 | 0.00 | 66 | 1004.6 |
| 20260505041527 | 76 | 191 | 8.0 | 16.0 | 0.00 | 0.00 | 0.00 | 67 | 1005.0 |
| 20260505041033 | 76 | 170 | 6.0 | 15.0 | 0.00 | 0.00 | 0.00 | 67 | 1005.1 |
| 20260505040541 | 76 | 185 | 7.0 | 17.0 | 0.00 | 0.00 | 0.00 | 67 | 1005.0 |
| 20260505040056 | 76 | 197 | 10.0 | 17.0 | 0.00 | 0.00 | 0.00 | 66 | 1005.0 |
| 20260505035543 | 76 | 197 | 5.0 | 20.0 | 0.00 | 0.00 | 0.00 | 67 | 1005.2 |
| 20260505035026 | 76 | 213 | 8.0 | 20.0 | 0.00 | 0.00 | 0.00 | 67 | 1005.1 |
| 20260505034530 | 76 | 177 | 9.0 | 17.0 | 0.00 | 0.00 | 0.00 | 67 | 1005.0 |
| 20260505034033 | 76 | 211 | 1.0 | 18.0 | 0.00 | 0.00 | 0.00 | 67 | 1005.0 |
| 20260505033525 | 76 | 195 | 3.0 | 18.0 | 0.00 | 0.00 | 0.00 | 67 | 1005.0 |
| 20260505033031 | 76 | 153 | 8.0 | 18.0 | 0.00 | 0.00 | 0.00 | 66 | 1005.1 |
| 20260505032537 | 76 | 153 | 7.0 | 17.0 | 0.00 | 0.00 | 0.00 | 66 | 1005.1 |
| 20260505032046 | 76 | 193 | 6.0 | 17.0 | 0.00 | 0.00 | 0.00 | 66 | 1005.0 |
| 20260505031534 | 76 | 148 | 8.0 | 17.0 | 0.00 | 0.00 | 0.00 | 66 | 1005.0 |
| 20260505031021 | 76 | 174 | 7.0 | 15.0 | 0.00 | 0.00 | 0.00 | 66 | 1005.0 |
| 20260505030532 | 76 | 153 | 5.0 | 15.0 | 0.00 | 0.00 | 0.00 | 66 | 1005.0 |
| 20260505030055 | 76 | 158 | 10.0 | 15.0 | 0.00 | 0.00 | 0.00 | 66 | 1005.2 |
| 20260505025541 | 76 | 199 | 5.0 | 18.0 | 0.00 | 0.00 | 0.00 | 65 | 1005.2 |
| 20260505025021 | 76 | 166 | 7.0 | 18.0 | 0.00 | 0.00 | 0.00 | 65 | 1005.3 |
| 20260505024555 | 76 | 128 | 8.0 | 16.0 | 0.00 | 0.00 | 0.00 | 65 | 1005.2 |
| 20260505024021 | 76 | 223 | 7.0 | 17.0 | 0.00 | 0.00 | 0.00 | 65 | 1005.3 |
| 20260505023531 | 76 | 148 | 7.0 | 17.0 | 0.00 | 0.00 | 0.00 | 65 | 1005.1 |
| 20260505023020 | 76 | 139 | 5.0 | 13.0 | 0.00 | 0.00 | 0.00 | 65 | 1005.0 |
| 20260505022525 | 76 | 171 | 6.0 | 13.0 | 0.00 | 0.00 | 0.00 | 65 | 1005.1 |
| 20260505022032 | 76 | 139 | 7.0 | 13.0 | 0.00 | 0.00 | 0.00 | 65 | 1005.2 |
| 20260505021536 | 76 | 124 | 6.0 | 15.0 | 0.00 | 0.00 | 0.00 | 65 | 1005.1 |
| 20260505021026 | 76 | 195 | 4.0 | 17.0 | 0.00 | 0.00 | 0.00 | 65 | 1004.9 |
| 20260505020539 | 76 | 189 | 7.0 | 17.0 | 0.00 | 0.00 | 0.00 | 65 | 1005.0 |
| 20260505020028 | 76 | 199 | 8.0 | 14.0 | 0.00 | 0.00 | 0.00 | 65 | 1005.0 |
| 20260505015540 | 76 | 184 | 7.0 | 17.0 | 0.00 | 0.00 | 0.00 | 65 | 1005.0 |
| 20260505015026 | 76 | 167 | 2.0 | 17.0 | 0.00 | 0.00 | 0.00 | 65 | 1005.2 |
| 20260505014529 | 76 | 187 | 4.0 | 15.0 | 0.00 | 0.00 | 0.00 | 65 | 1005.0 |
| 20260505014039 | 77 | 214 | 5.0 | 15.0 | 0.00 | 0.00 | 0.00 | 65 | 1005.0 |
| 20260505013527 | 77 | 209 | 1.0 | 15.0 | 0.00 | 0.00 | 0.00 | 65 | 1005.2 |
| 20260505013058 | 77 | 185 | 5.0 | 16.0 | 0.00 | 0.00 | 0.00 | 64 | 1005.1 |
| 20260505012544 | 77 | 185 | 10.0 | 17.0 | 0.00 | 0.00 | 0.00 | 64 | 1005.1 |
| 20260505012033 | 77 | 189 | 6.0 | 17.0 | 0.00 | 0.00 | 0.00 | 64 | 1005.0 |
| 20260505011536 | 77 | 135 | 3.0 | 15.0 | 0.00 | 0.00 | 0.00 | 63 | 1005.0 |
| 20260505011024 | 77 | 182 | 5.0 | 15.0 | 0.00 | 0.00 | 0.00 | 63 | 1005.1 |
| 20260505010533 | 77 | 176 | 3.0 | 17.0 | 0.00 | 0.00 | 0.00 | 63 | 1005.1 |
| 20260505010039 | 78 | 170 | 9.0 | 17.0 | 0.00 | 0.00 | 0.00 | 62 | 1005.1 |
| 20260505005528 | 78 | 180 | 7.0 | 15.0 | 0.00 | 0.00 | 0.00 | 62 | 1005.1 |
| 20260505005031 | 78 | 196 | 6.0 | 15.0 | 0.00 | 0.00 | 0.00 | 62 | 1005.1 |
| 20260505004533 | 78 | 186 | 5.0 | 17.0 | 0.00 | 0.00 | 0.00 | 61 | 1005.2 |
| 20260505004036 | 78 | 197 | 11.0 | 17.0 | 0.00 | 0.00 | 0.00 | 61 | 1005.1 |
| 20260505003524 | 79 | 163 | 9.0 | 18.0 | 0.00 | 0.00 | 0.00 | 61 | 1005.1 |
| 20260505003033 | 79 | 191 | 6.0 | 18.0 | 0.00 | 0.00 | 0.00 | 61 | 1005.1 |
| 20260505002523 | 79 | 185 | 10.0 | 16.0 | 0.00 | 0.00 | 0.00 | 60 | 1005.1 |
| 20260505002030 | 79 | 182 | 8.0 | 16.0 | 0.00 | 0.00 | 0.00 | 60 | 1005.1 |
| 20260505001602 | 79 | 185 | 8.0 | 15.0 | 0.00 | 0.00 | 0.00 | 60 | 1005.2 |
| 20260505001046 | 80 | 121 | 9.0 | 15.0 | 0.00 | 0.00 | 0.00 | 59 | 1005.2 |
| 20260505000549 | 80 | 148 | 8.0 | 16.0 | 0.00 | 0.00 | 0.00 | 58 | 1005.3 |
| 20260505000054 | 80 | 202 | 3.0 | 16.0 | 0.00 | 0.00 | 0.00 | 58 | 1005.4 |
| 20260504235524 | 80 | 224 | 7.0 | 18.0 | 0.00 | 0.00 | 0.00 | 58 | 1005.4 |
| 20260504235032 | 80 | 218 | 9.0 | 18.0 | 0.00 | 0.00 | 0.00 | 58 | 1005.4 |
| 20260504234537 | 80 | 189 | 10.0 | 18.0 | 0.00 | 0.00 | 0.00 | 57 | 1005.4 |
| 20260504234041 | 80 | 148 | 6.0 | 17.0 | 0.00 | 0.00 | 0.00 | 57 | 1005.4 |
| 20260504233524 | 80 | 191 | 9.0 | 18.0 | 0.00 | 0.00 | 0.00 | 57 | 1005.5 |
| 20260504233032 | 80 | 172 | 11.0 | 18.0 | 0.00 | 0.00 | 0.00 | 57 | 1005.6 |
| 20260504232537 | 81 | 135 | 6.0 | 17.0 | 0.00 | 0.00 | 0.00 | 56 | 1005.6 |
| 20260504232027 | 81 | 185 | 11.0 | 17.0 | 0.00 | 0.00 | 0.00 | 56 | 1005.5 |
| 20260504231536 | 81 | 190 | 5.0 | 21.0 | 0.00 | 0.00 | 0.00 | 56 | 1005.6 |
| 20260504231030 | 81 | 190 | 11.0 | 21.0 | 0.00 | 0.00 | 0.00 | 55 | 1005.6 |
| 20260504230539 | 81 | 205 | 13.0 | 20.0 | 0.00 | 0.00 | 0.00 | 55 | 1005.5 |
| 20260504230019 | 81 | 236 | 13.0 | 21.0 | 0.00 | 0.00 | 0.00 | 55 | 1005.5 |
| 20260504225525 | 82 | 187 | 13.0 | 21.0 | 0.00 | 0.00 | 0.00 | 54 | 1005.5 |
| 20260504225030 | 82 | 211 | 12.0 | 18.0 | 0.00 | 0.00 | 0.00 | 54 | 1005.7 |
| 20260504224538 | 82 | 218 | 13.0 | 18.0 | 0.00 | 0.00 | 0.00 | 54 | 1005.7 |
| 20260504224027 | 82 | 202 | 4.0 | 17.0 | 0.00 | 0.00 | 0.00 | 54 | 1005.8 |
| 20260504223538 | 83 | 214 | 8.0 | 21.0 | 0.00 | 0.00 | 0.00 | 54 | 1005.9 |
| 20260504223024 | 83 | 206 | 9.0 | 21.0 | 0.00 | 0.00 | 0.00 | 53 | 1005.8 |
| 20260504222532 | 83 | 158 | 12.0 | 17.0 | 0.00 | 0.00 | 0.00 | 53 | 1005.7 |
| 20260504222023 | 83 | 213 | 9.0 | 21.0 | 0.00 | 0.00 | 0.00 | 53 | 1005.7 |
| 20260504221526 | 83 | 220 | 7.0 | 22.0 | 0.00 | 0.00 | 0.00 | 53 | 1005.8 |
| 20260504221103 | 83 | 204 | 12.0 | 22.0 | 0.00 | 0.00 | 0.00 | 53 | 1005.9 |
| 20260504220525 | 83 | 206 | 14.0 | 20.0 | 0.00 | 0.00 | 0.00 | 52 | 1005.9 |
| 20260504220033 | 83 | 191 | 8.0 | 16.0 | 0.00 | 0.00 | 0.00 | 53 | 1005.9 |
| 20260504215524 | 83 | 233 | 7.0 | 17.0 | 0.00 | 0.00 | 0.00 | 53 | 1006.0 |
| 20260504215026 | 83 | 177 | 8.0 | 17.0 | 0.00 | 0.00 | 0.00 | 53 | 1006.0 |
| 20260504214532 | 83 | 163 | 10.0 | 19.0 | 0.00 | 0.00 | 0.00 | 53 | 1006.0 |
| 20260504214031 | 83 | 124 | 11.0 | 19.0 | 0.00 | 0.00 | 0.00 | 53 | 1006.2 |
| 20260504213537 | 82 | 125 | 9.0 | 20.0 | 0.00 | 0.00 | 0.00 | 53 | 1006.2 |
| 20260504213024 | 82 | 189 | 13.0 | 23.0 | 0.00 | 0.00 | 0.00 | 53 | 1006.3 |
| 20260504212530 | 83 | 212 | 9.0 | 21.0 | 0.00 | 0.00 | 0.00 | 53 | 1006.6 |
| 20260504212035 | 83 | 202 | 12.0 | 20.0 | 0.00 | 0.00 | 0.00 | 52 | 1006.7 |
| 20260504211545 | 83 | 158 | 9.0 | 20.0 | 0.00 | 0.00 | 0.00 | 52 | 1006.7 |
| 20260504211032 | 83 | 218 | 8.0 | 20.0 | 0.00 | 0.00 | 0.00 | 52 | 1006.5 |
| 20260504210559 | 83 | 210 | 12.0 | 20.0 | 0.00 | 0.00 | 0.00 | 52 | 1006.5 |
| 20260504210046 | 83 | 208 | 10.0 | 18.0 | 0.00 | 0.00 | 0.00 | 52 | 1006.8 |
| 20260504205528 | 83 | 202 | 10.0 | 19.0 | 0.00 | 0.00 | 0.00 | 53 | 1007.0 |
| 20260504205103 | 83 | 226 | 10.0 | 20.0 | 0.00 | 0.00 | 0.00 | 54 | 1007.0 |
| 20260504204543 | 83 | 168 | 10.0 | 20.0 | 0.00 | 0.00 | 0.00 | 52 | 1007.0 |
| 20260504204046 | 83 | 148 | 10.0 | 14.0 | 0.00 | 0.00 | 0.00 | 52 | 1007.2 |
| 20260504203540 | 83 | 191 | 8.0 | 16.0 | 0.00 | 0.00 | 0.00 | 53 | 1007.2 |
| 20260504203025 | 83 | 184 | 9.0 | 16.0 | 0.00 | 0.00 | 0.00 | 53 | 1007.4 |
| 20260504202529 | 82 | 194 | 6.0 | 20.0 | 0.00 | 0.00 | 0.00 | 54 | 1007.5 |
| 20260504202040 | 82 | 179 | 11.0 | 21.0 | 0.00 | 0.00 | 0.00 | 53 | 1007.5 |
| 20260504201524 | 82 | 164 | 12.0 | 19.0 | 0.00 | 0.00 | 0.00 | 54 | 1007.8 |
| 20260504201032 | 82 | 210 | 11.0 | 19.0 | 0.00 | 0.00 | 0.00 | 53 | 1007.9 |
| 20260504200524 | 82 | 182 | 14.0 | 22.0 | 0.00 | 0.00 | 0.00 | 53 | 1008.0 |
| 20260504200043 | 81 | 210 | 8.0 | 22.0 | 0.00 | 0.00 | 0.00 | 54 | 1008.0 |
| 20260504195545 | 81 | 198 | 14.0 | 21.0 | 0.00 | 0.00 | 0.00 | 52 | 1008.1 |
| 20260504195050 | 82 | 205 | 11.0 | 18.0 | 0.00 | 0.00 | 0.00 | 52 | 1008.5 |
| 20260504194552 | 82 | 217 | 11.0 | 18.0 | 0.00 | 0.00 | 0.00 | 52 | 1008.5 |
| 20260504194037 | 81 | 224 | 5.0 | 19.0 | 0.00 | 0.00 | 0.00 | 54 | 1008.7 |
| 20260504193523 | 81 | 174 | 10.0 | 19.0 | 0.00 | 0.00 | 0.00 | 52 | 1008.7 |
| 20260504193046 | 81 | 208 | 7.0 | 15.0 | 0.00 | 0.00 | 0.00 | 54 | 1008.6 |
| 20260504192537 | 80 | 198 | 9.0 | 22.0 | 0.00 | 0.00 | 0.00 | 53 | 1008.7 |
| 20260504192043 | 81 | 199 | 15.0 | 22.0 | 0.00 | 0.00 | 0.00 | 53 | 1008.7 |
| 20260504191545 | 81 | 192 | 11.0 | 19.0 | 0.00 | 0.00 | 0.00 | 53 | 1008.9 |
| 20260504191048 | 81 | 207 | 10.0 | 19.0 | 0.00 | 0.00 | 0.00 | 54 | 1008.9 |
| 20260504190547 | 80 | 173 | 11.0 | 20.0 | 0.00 | 0.00 | 0.00 | 53 | 1009.0 |
| 20260504190034 | 80 | 210 | 13.0 | 23.0 | 0.00 | 0.00 | 0.00 | 53 | 1009.1 |
| 20260504185519 | 80 | 256 | 13.0 | 23.0 | 0.00 | 0.00 | 0.00 | 53 | 1009.3 |
| 20260504185027 | 80 | 215 | 12.0 | 20.0 | 0.00 | 0.00 | 0.00 | 54 | 1009.3 |
| 20260504184537 | 80 | 211 | 10.0 | 20.0 | 0.00 | 0.00 | 0.00 | 54 | 1009.3 |
| 20260504184042 | 80 | 171 | 10.0 | 18.0 | 0.00 | 0.00 | 0.00 | 53 | 1009.5 |
| 20260504183532 | 80 | 236 | 10.0 | 19.0 | 0.00 | 0.00 | 0.00 | 54 | 1009.4 |